Tuxtla Gutierrez, Mexico

1:24 PM CST on January 22, 2018 (GMT -0600)
Francisco Sarabia

Weather History for MMTG - April, 2013

Change the Weather History Date:

Sunday, April 21, 2013

  Actual Average Record
Temperature  
Mean Temperature 82 °F -  
Max Temperature 99 °F 83 °F 102 °F (2008)
Min Temperature 64 °F 64 °F 59 °F (2004)
Cooling Degree Days 16    
Growing Degree Days 32 (Base 50)    
Moisture  
Dew Point 63 °F    
Average Humidity 58    
Maximum Humidity 83    
Minimum Humidity 30    
Precipitation  
Precipitation 0.00 in - - ()
Sea Level Pressure  
Sea Level Pressure 29.93 in    
Wind  
Wind Speed 4 mph ()    
Max Wind Speed 15 mph    
Max Gust Speed -    
Visibility 8.0 miles    
Events      
Averages and records for this station are not official NWS values.
T = Trace of Precipitation, MM = Missing Value Source: Averaged Metar Reports

Daily Weather History Graph

Daily Weather History Graph

Search for Another Location

Airport or City:

Trip Planner

Search our weather history database for the weather conditions in past years. The results will help you decide how hot, cold, wet, or windy it might be!

Date:

Astronomy

Apr. 21, 2013 Rise Set
Actual Time 6:52 AM CDT 7:29 PM CDT
Civil Twilight 6:30 AM CDT 7:51 PM CDT
Nautical Twilight 6:04 AM CDT 8:17 PM CDT
Astronomical Twilight 5:38 AM CDT 8:44 PM CDT
Moon 3:50 PM CDT (4/21) 3:36 AM CDT (4/21)
Length of Visible Light 13h 21m
Length of Day
12h 36m
Waxing Gibbous, 80% of the Moon is Illuminated
Apr 21
Waxing Gibbous
Apr 25
Full
May 2
Last Quarter
May 9
New
May 17
First Quarter

Hourly Weather History & Observations

Time (CDT) Temp. Heat Index Dew Point Humidity Pressure Visibility Wind Dir Wind Speed Gust Speed Precip Events Conditions
12:36 AM 67 °F - 62 °F 78% 30.00 in 9 mi WNW 2.2 mph - -   Scattered Clouds
3:34 AM 66 °F - 61 °F 78% 29.98 in 9 mi WSW 2.2 mph - -   Scattered Clouds
5:48 AM 64.4 °F - 59.0 °F 83% 30.04 in 4.0 mi SSE 3.5 mph - N/A   Scattered Clouds
6:38 AM 65 °F - 60 °F 80% 29.99 in 9 mi West 2.2 mph - -   Clear
6:44 AM 64.4 °F - 59.0 °F 83% 29.98 in 6.0 mi SSW 3.5 mph - N/A   Scattered Clouds
7:41 AM 66.2 °F - 60.8 °F 83% 30.07 in 7.0 mi SSW 3.5 mph - N/A   Scattered Clouds
8:40 AM 69.8 °F - 60.8 °F 73% 30.09 in 8.0 mi North 3.5 mph - N/A   Partly Cloudy
9:40 AM 74 °F - 65 °F 68% 30.02 in 9 mi Calm Calm - -  
9:44 AM 73.4 °F - 60.8 °F 65% 30.00 in 8.0 mi Calm Calm - N/A   Partly Cloudy
10:43 AM 78.8 °F - 60.8 °F 54% 30.06 in 8.0 mi Calm Calm - N/A   Partly Cloudy
11:41 AM 82.4 °F 82.9 °F 60.8 °F 48% 30.03 in 8.0 mi East 5.8 mph - N/A   Partly Cloudy
12:42 PM 86.0 °F 86.1 °F 60.8 °F 43% 29.91 in 8.0 mi East 5.8 mph - N/A   Partly Cloudy
12:44 PM 87 °F - 70 °F 47% 29.92 in 9 mi East 2.2 mph - -  
1:48 PM 89.6 °F 90.1 °F 62.6 °F 40% 29.94 in 8.0 mi ENE 4.6 mph - N/A   Clear
2:43 PM 93.2 °F 93.3 °F 60.8 °F 34% 29.89 in 8.0 mi East 8.1 mph - N/A   Partly Cloudy
3:45 PM 95.0 °F 96.0 °F 62.6 °F 34% 29.75 in 8.0 mi ENE 8.1 mph - N/A   Scattered Clouds
4:00 PM 96 °F - - % 29.77 in 9 mi East 2.2 mph - -   Smoke
4:45 PM 96.8 °F 97.1 °F 60.8 °F 30% 29.83 in 8.0 mi Calm Calm - N/A   Scattered Clouds
5:49 PM 95.0 °F 96.0 °F 62.6 °F 34% 29.82 in 8.0 mi WNW 4.6 mph - N/A   Mostly Cloudy
6:45 PM 91.4 °F 94.0 °F 66.2 °F 43% 29.75 in 8.0 mi NW 15.0 mph - N/A   Scattered Clouds
6:46 PM 85 °F - 70 °F 53% 29.79 in 9 mi NW 4.5 mph - -   Smoke
7:49 PM 86.0 °F 88.2 °F 66.2 °F 51% 29.89 in 8.0 mi NW 15.0 mph - N/A   Scattered Clouds
8:41 PM 84.2 °F 86.6 °F 66.2 °F 55% 29.93 in 8.0 mi NW 6.9 mph - N/A   Scattered Clouds
9:46 PM 78 °F - 68 °F 63% 29.87 in 9 mi NW 4.5 mph - -   Partly Cloudy
9:49 PM 80.6 °F 82.7 °F 66.2 °F 61% 29.87 in 8.0 mi WNW 11.5 mph - N/A   Scattered Clouds
10:47 PM 78.8 °F - 66.2 °F 65% 29.99 in 8.0 mi NW 9.2 mph - N/A   Partly Cloudy